Weather History for Cut Bank, MT

Change the Weather History Date:

Monday, March 10, 2014

  Actual Average Record
Temperature  
Mean Temperature 36 °F 30 °F  
Max Temperature 44 °F 41 °F 64 °F (1983)
Min Temperature 28 °F 18 °F -33 °F (1932)
Degree Days  
Heating Degree Days 29 36  
Month to date heating degree days 487 370  
Since 1 July heating degree days 6693 6430  
Cooling Degree Days 0 0  
Month to date cooling degree days 0 0  
Year to date cooling degree days 0 0  
Moisture  
Dew Point 31 °F    
Average Humidity 75    
Maximum Humidity 96    
Minimum Humidity 53    
Precipitation  
Precipitation 0.05 in 0.02 in 0.18 in (1952)
Month to date precipitation 0.12 0.14  
Year to date precipitation 1.45 0.55  
Snow  
Snow 0.00 in - - ()
Snow Depth 0.00 in    
Sea Level Pressure  
Sea Level Pressure 29.88 in    
Wind  
Wind Speed 10 mph (NW)    
Max Wind Speed 21 mph    
Max Gust Speed 25 mph    
Visibility 8 miles    
Events Snow    
T = Trace of Precipitation, MM = Missing Value Source: NWS Daily Summary

Daily Weather History Graph

Daily Weather History Graph

Search for Another Location

Airport:

Trip Planner

Search our weather history database for the weather conditions in past years. The results will help you decide how hot, cold, wet, or windy it might be!

Date:

Astronomy

Mar. 10, 2014 Rise Set
Actual Time 7:52 AM MDT 7:27 PM MDT
Civil Twilight 7:21 AM MDT 7:58 PM MDT
Nautical Twilight 6:45 AM MDT 8:35 PM MDT
Astronomical Twilight 6:08 AM MDT 9:12 PM MDT
Moon 1:54 PM MDT (3/10) 4:27 AM MDT (3/10)
Length of Visible Light 12h 37m
Length of Day
11h 34m
Waxing Gibbous, 70% of the Moon is Illuminated
Mar 10
Waxing Gibbous
Mar 16
Full
Mar 23
Last Quarter
Mar 30
New
Apr 7
First Quarter

Hourly Weather History & Observations

Time (MDT) Temp. Windchill Dew Point Humidity Pressure Visibility Wind Dir Wind Speed Gust Speed Precip Events Conditions
12:56 AM 37.9 °F 28.9 °F 33.1 °F 83% 29.82 in 10.0 mi WNW 16.1 mph - N/A   Clear
1:56 AM 39.0 °F 29.0 °F 33.1 °F 79% 29.80 in 10.0 mi WNW 20.7 mph - N/A   Clear
2:56 AM 37.0 °F 33.3 °F 30.9 °F 79% 29.82 in 10.0 mi Variable 4.6 mph - N/A   Clear
3:56 AM 37.9 °F 32.1 °F 30.9 °F 76% 29.81 in 10.0 mi WSW 8.1 mph - N/A   Clear
4:56 AM 39.0 °F 30.6 °F 32.0 °F 76% 29.78 in 10.0 mi West 15.0 mph - N/A   Clear
5:56 AM 39.0 °F 30.6 °F 30.9 °F 73% 29.78 in 10.0 mi West 15.0 mph - N/A   Overcast
6:56 AM 37.9 °F 35.5 °F 30.0 °F 73% 29.81 in 10.0 mi North 3.5 mph - N/A   Overcast
7:56 AM 37.9 °F 33.5 °F 28.9 °F 70% 29.82 in 10.0 mi NW 5.8 mph - N/A   Overcast
8:56 AM 42.1 °F 37.7 °F 27.0 °F 55% 29.81 in 10.0 mi South 6.9 mph - N/A   Overcast
9:56 AM 39.0 °F 31.0 °F 33.1 °F 79% 29.82 in 10.0 mi SW 13.8 mph - N/A   Mostly Cloudy
10:56 AM 39.9 °F 32.5 °F 35.1 °F 83% 29.82 in 10.0 mi WSW 12.7 mph - N/A   Clear
11:56 AM 41.0 °F 33.9 °F 34.0 °F 76% 29.81 in 10.0 mi WSW 12.7 mph - N/A   Clear
12:56 PM 42.1 °F 36.1 °F 34.0 °F 73% 29.81 in 10.0 mi West 10.4 mph - N/A   Overcast
1:56 PM 43.0 °F 37.2 °F 30.9 °F 62% 29.78 in 10.0 mi WNW 10.4 mph - N/A   Overcast
2:56 PM 43.0 °F 37.7 °F 28.9 °F 58% 29.78 in 10.0 mi NW 9.2 mph - N/A   Overcast
3:56 PM 42.1 °F 36.1 °F 28.9 °F 60% 29.79 in 10.0 mi North 10.4 mph - N/A   Overcast
4:56 PM 41.0 °F 34.3 °F 28.9 °F 62% 29.82 in 10.0 mi North 11.5 mph - N/A   Overcast
5:56 PM 37.9 °F 30.9 °F 30.9 °F 76% 29.86 in 10.0 mi North 10.4 mph - N/A   Overcast
6:53 PM 35.6 °F 25.2 °F 32.0 °F 87% 29.85 in 9.0 mi North 18.4 mph - 0.00 in Snow Light Snow
6:56 PM 34.0 °F 23.4 °F 32.0 °F 92% 29.92 in 7.0 mi North 17.3 mph - 0.00 in Snow Light Snow
7:07 PM 33.1 °F 22.6 °F 32.0 °F 96% 29.87 in 1.8 mi North 16.1 mph - 0.00 in Snow Light Snow
7:18 PM 33.1 °F 23.0 °F 32.0 °F 96% 29.87 in 1.0 mi North 15.0 mph - 0.00 in Snow Light Snow
7:56 PM 33.1 °F 23.9 °F 32.0 °F 96% 29.97 in 1.2 mi North 12.7 mph - 0.01 in Snow Light Snow
8:41 PM 33.1 °F 23.0 °F 30.9 °F 92% 29.93 in 1.5 mi North 15.0 mph - 0.02 in Snow Light Snow
8:56 PM 33.1 °F 23.4 °F 30.9 °F 92% 30.00 in 1.2 mi North 13.8 mph - 0.02 in Snow Light Snow
9:25 PM 32.0 °F 23.6 °F 30.9 °F 96% 29.95 in 1.0 mi North 10.4 mph - 0.02 in Snow Light Snow
9:36 PM 32.0 °F 23.0 °F 30.9 °F 96% 29.96 in 1.8 mi North 11.5 mph - 0.02 in Snow Light Snow
9:43 PM 32.0 °F 23.0 °F 30.9 °F 96% 29.96 in 2.5 mi North 11.5 mph - 0.02 in Snow Light Snow
9:56 PM 33.1 °F 26.9 °F 30.9 °F 92% 30.04 in 7.0 mi NNE 6.9 mph - 0.02 in Snow Light Snow
10:03 PM 33.1 °F 27.7 °F 30.9 °F 92% 29.98 in 8.0 mi NNE 5.8 mph - 0.00 in Snow Light Snow
10:56 PM 32.0 °F 27.5 °F 30.0 °F 92% 30.07 in 10.0 mi West 4.6 mph - 0.00 in   Overcast
11:56 PM 30.9 °F 22.2 °F 28.0 °F 89% 30.12 in 10.0 mi NW 10.4 mph - N/A   Mostly Cloudy